Location: Antichan
(42.9728°N, 0.6667°E)
Time: 18:14:19
(UTC+00:00)

Cosmos 1633 Rocket - Pass Details

Date: 15 August 2020
Orbit: 606 x 625 km, 82.5° (Epoch: 17 September)

Event Time Altitude Azimuth Distance (km) Brightness Sun altitude
Rises 19:29:39 0° 166° (SSE) 2,892 6.1 -6.0°
Reaches altitude 10° 19:31:59 10° 158° (SSE) 1,990 5.2 -6.4°
Maximum altitude 19:36:02 37° 91° (E) 974 3.6 -7.1°
Drops below altitude 10° 19:40:06 10° 25° (NNE) 1,998 5.7 -7.7°
Sets 19:42:27 0° 17° (NNE) 2,906 6.7 -8.1°
